TimeCST,TemperatureF,Dew PointF,Humidity,Sea Level PressureIn,VisibilityMPH,Wind Direction,Wind SpeedMPH,Gust SpeedMPH,PrecipitationIn,Events,Conditions,WindDirDegrees,DateUTC
12:01 AM,32.0,24.8,75,30.31,10.0,SE,5.8,-,N/A,,Clear,140,2012-11-17 06:01:00
12:21 AM,32.0,24.8,75,30.31,10.0,SSE,4.6,-,N/A,,Clear,150,2012-11-17 06:21:00
12:41 AM,32.0,24.8,75,30.31,10.0,SSE,3.5,-,N/A,,Clear,160,2012-11-17 06:41:00
1:01 AM,32.0,24.8,75,30.31,10.0,Calm,Calm,-,N/A,,Clear,0,2012-11-17 07:01:00
1:21 AM,32.0,26.6,80,30.31,10.0,Calm,Calm,-,N/A,,Clear,0,2012-11-17 07:21:00
1:41 AM,28.4,21.2,74,30.30,10.0,Calm,Calm,-,N/A,,Clear,0,2012-11-17 07:41:00
2:01 AM,26.6,23.0,86,30.30,10.0,Calm,Calm,-,N/A,,Clear,0,2012-11-17 08:01:00
2:21 AM,26.6,23.0,86,30.29,10.0,ESE,3.5,-,N/A,,Clear,120,2012-11-17 08:21:00
2:41 AM,30.2,26.6,86,30.29,10.0,Calm,Calm,-,N/A,,Clear,0,2012-11-17 08:41:00
3:01 AM,30.2,26.6,86,30.28,10.0,Calm,Calm,-,N/A,,Clear,0,2012-11-17 09:01:00
3:21 AM,28.4,23.0,80,30.27,10.0,ESE,3.5,-,N/A,,Clear,120,2012-11-17 09:21:00
3:41 AM,30.2,26.6,86,30.27,10.0,SE,3.5,-,N/A,,Clear,140,2012-11-17 09:41:00
4:01 AM,32.0,28.4,87,30.26,10.0,SSE,3.5,-,N/A,,Clear,150,2012-11-17 10:01:00
4:21 AM,32.0,28.4,87,30.26,10.0,SSE,5.8,-,N/A,,Clear,160,2012-11-17 10:21:00
4:41 AM,33.8,28.4,81,30.26,10.0,SSE,6.9,-,N/A,,Clear,160,2012-11-17 10:41:00
5:01 AM,33.8,28.4,81,30.26,10.0,SSE,5.8,-,N/A,,Clear,160,2012-11-17 11:01:00
5:21 AM,33.8,28.4,81,30.26,10.0,SSE,6.9,-,N/A,,Clear,160,2012-11-17 11:21:00
5:41 AM,33.8,28.4,81,30.25,10.0,SSE,6.9,-,N/A,,Clear,160,2012-11-17 11:41:00
6:01 AM,33.8,28.4,81,30.25,10.0,SSE,6.9,-,N/A,,Clear,160,2012-11-17 12:01:00
6:21 AM,33.8,28.4,81,30.25,10.0,SSE,5.8,-,N/A,,Clear,160,2012-11-17 12:21:00
6:41 AM,33.8,28.4,81,30.24,10.0,SSE,6.9,-,N/A,,Clear,160,2012-11-17 12:41:00
7:01 AM,33.8,28.4,81,30.25,10.0,SSE,6.9,-,N/A,,Clear,160,2012-11-17 13:01:00
7:21 AM,33.8,30.2,87,30.25,10.0,SSE,5.8,-,N/A,,Clear,160,2012-11-17 13:21:00
7:41 AM,33.8,30.2,87,30.25,7.0,SSE,5.8,-,N/A,,Clear,160,2012-11-17 13:41:00
8:01 AM,35.6,30.2,81,30.25,7.0,South,8.1,-,N/A,,Clear,170,2012-11-17 14:01:00
8:21 AM,35.6,30.2,81,30.25,10.0,South,8.1,-,N/A,,Clear,170,2012-11-17 14:21:00
8:41 AM,35.6,32.0,87,30.25,10.0,South,8.1,-,N/A,,Clear,170,2012-11-17 14:41:00
9:01 AM,37.4,32.0,81,30.25,10.0,South,6.9,-,N/A,,Clear,170,2012-11-17 15:01:00
9:21 AM,37.4,32.0,81,30.26,10.0,South,9.2,-,N/A,,Clear,170,2012-11-17 15:21:00
9:41 AM,39.2,32.0,75,30.25,10.0,South,8.1,-,N/A,,Clear,170,2012-11-17 15:41:00
10:01 AM,42.8,32.0,66,30.26,10.0,South,10.4,16.1,N/A,,Clear,180,2012-11-17 16:01:00
10:21 AM,44.6,33.8,66,30.26,10.0,South,10.4,-,N/A,,Clear,180,2012-11-17 16:21:00
10:41 AM,44.6,32.0,61,30.26,10.0,South,12.7,-,N/A,,Clear,180,2012-11-17 16:41:00
11:01 AM,44.6,32.0,61,30.25,10.0,South,10.4,-,N/A,,Clear,180,2012-11-17 17:01:00
11:21 AM,46.4,32.0,57,30.25,10.0,South,11.5,17.3,N/A,,Clear,190,2012-11-17 17:21:00
11:41 AM,48.2,32.0,54,30.24,10.0,South,11.5,-,N/A,,Clear,180,2012-11-17 17:41:00
12:01 PM,50.0,33.8,54,30.23,10.0,South,11.5,16.1,N/A,,Clear,170,2012-11-17 18:01:00
12:21 PM,50.0,32.0,50,30.23,10.0,SSW,11.5,-,N/A,,Clear,200,2012-11-17 18:21:00
12:41 PM,51.8,32.0,47,30.22,10.0,South,15.0,-,N/A,,Clear,180,2012-11-17 18:41:00
1:01 PM,53.6,32.0,44,30.22,10.0,South,12.7,17.3,N/A,,Clear,190,2012-11-17 19:01:00
1:21 PM,53.6,32.0,44,30.21,10.0,SSW,12.7,19.6,N/A,,Clear,200,2012-11-17 19:21:00
1:41 PM,53.6,32.0,44,30.21,10.0,SSW,16.1,20.7,N/A,,Clear,200,2012-11-17 19:41:00
2:01 PM,55.4,32.0,41,30.21,10.0,SSW,13.8,18.4,N/A,,Clear,200,2012-11-17 20:01:00
2:21 PM,53.6,32.0,44,30.20,10.0,South,13.8,-,N/A,,Clear,190,2012-11-17 20:21:00
2:41 PM,55.4,32.0,41,30.20,10.0,South,10.4,18.4,N/A,,Clear,180,2012-11-17 20:41:00
3:01 PM,53.6,32.0,44,30.21,10.0,South,9.2,24.2,N/A,,Clear,170,2012-11-17 21:01:00
3:21 PM,53.6,32.0,44,30.20,10.0,South,10.4,-,N/A,,Clear,170,2012-11-17 21:21:00
3:41 PM,53.6,32.0,44,30.20,10.0,SSE,8.1,-,N/A,,Clear,160,2012-11-17 21:41:00
4:01 PM,51.8,32.0,47,30.20,10.0,SSE,10.4,-,N/A,,Clear,160,2012-11-17 22:01:00
4:21 PM,50.0,32.0,50,30.20,10.0,SSE,10.4,-,N/A,,Scattered Clouds,160,2012-11-17 22:21:00
4:41 PM,50.0,32.0,50,30.20,10.0,SSE,10.4,-,N/A,,Mostly Cloudy,160,2012-11-17 22:41:00
5:01 PM,50.0,33.8,54,30.20,10.0,SE,8.1,-,N/A,,Overcast,140,2012-11-17 23:01:00
5:21 PM,50.0,33.8,54,30.20,10.0,SSE,8.1,-,N/A,,Overcast,150,2012-11-17 23:21:00
5:41 PM,50.0,33.8,54,30.19,10.0,SSE,9.2,-,N/A,,Overcast,160,2012-11-17 23:41:00
6:21 PM,50.0,33.8,54,30.19,10.0,SSE,9.2,-,N/A,,Overcast,160,2012-11-18 00:21:00
6:41 PM,50.0,33.8,54,30.19,10.0,South,10.4,16.1,N/A,,Overcast,170,2012-11-18 00:41:00
7:01 PM,50.0,33.8,54,30.18,10.0,SSE,9.2,16.1,N/A,,Overcast,150,2012-11-18 01:01:00
7:21 PM,50.0,33.8,54,30.19,10.0,SSE,10.4,16.1,N/A,,Overcast,160,2012-11-18 01:21:00
7:41 PM,50.0,35.6,58,30.20,10.0,South,6.9,-,N/A,,Overcast,190,2012-11-18 01:41:00
8:01 PM,50.0,35.6,58,30.20,10.0,South,9.2,-,N/A,,Overcast,180,2012-11-18 02:01:00
8:21 PM,50.0,35.6,58,30.21,10.0,South,6.9,-,N/A,,Overcast,180,2012-11-18 02:21:00
8:41 PM,48.2,33.8,58,30.21,10.0,SSE,6.9,-,N/A,,Overcast,160,2012-11-18 02:41:00
9:01 PM,48.2,35.6,62,30.21,10.0,SSE,6.9,-,N/A,,Overcast,160,2012-11-18 03:01:00
9:21 PM,48.2,35.6,62,30.21,10.0,SSE,5.8,-,N/A,,Overcast,150,2012-11-18 03:21:00
9:41 PM,48.2,35.6,62,30.20,10.0,SSE,6.9,-,N/A,,Overcast,150,2012-11-18 03:41:00
10:01 PM,48.2,35.6,62,30.20,10.0,SSE,6.9,-,N/A,,Overcast,160,2012-11-18 04:01:00
10:21 PM,48.2,35.6,62,30.19,10.0,SSE,8.1,-,N/A,,Overcast,160,2012-11-18 04:21:00
10:41 PM,48.2,33.8,58,30.19,10.0,SSE,8.1,-,N/A,,Overcast,160,2012-11-18 04:41:00
11:01 PM,48.2,33.8,58,30.19,10.0,SSE,9.2,-,N/A,,Overcast,160,2012-11-18 05:01:00
11:21 PM,48.2,33.8,58,30.19,10.0,South,11.5,-,N/A,,Overcast,170,2012-11-18 05:21:00
11:41 PM,48.2,33.8,58,30.19,10.0,South,8.1,-,N/A,,Overcast,170,2012-11-18 05:41:00